When you browse on this site, cookies collect data to enhance your experience and personalize the content and advertising you see.
Visit our Privacy Policy to learn more. By continuing to use the site, you agree to this use of cookies and data.
  • In Austria
  • List of Countries
  • For 7 days
  • Water Temperature
  • Satellite Maps
  • Weather Map
  • News
  • Weather Widgets
  • user-avatar
    Login

    Hourly Weather Rybojady

    Today, 21 May, Tuesday

    Time Temperature Precipitation Wind Pressure Humidity
    00:00 +15°C° 0 mm 2 mps 747 mmHg 85%
    01:00 +14°C° 0 mm 2 mps 747 mmHg 87%
    02:00 +14°C° 0 mm 2 mps 747 mmHg 88%
    03:00 +13°C° 0 mm 2 mps 747 mmHg 89%
    04:00 +13°C° 0 mm 2 mps 748 mmHg 91%
    05:00 +14°C° 0 mm 2 mps 748 mmHg 85%
    06:00 +16°C° 0 mm 2 mps 748 mmHg 79%
    07:00 +18°C° 0 mm 2 mps 748 mmHg 74%
    08:00 +19°C° 0 mm 2 mps 748 mmHg 68%
    09:00 +21°C° 0 mm 3 mps 748 mmHg 62%
    10:00 +22°C° 0 mm 3 mps 748 mmHg 56%
    11:00 +24°C° 0 mm 3 mps 748 mmHg 56%
    12:00 +24°C° 0 mm 3 mps 748 mmHg 56%
    13:00 +24°C° 0 mm 2 mps 747 mmHg 56%
    14:00 +24°C° 0 mm 2 mps 747 mmHg 55%
    15:00 +24°C° 0 mm 1 mps 747 mmHg 54%
    16:00 +22°C° 0 mm 0 mps 747 mmHg 54%
    17:00 +23°C° 0.6 mm 1 mps 747 mmHg 62%
    18:00 +21°C° 0.6 mm 2 mps 747 mmHg 70%
    19:00 +19°C° 0.6 mm 2 mps 747 mmHg 78%
    20:00 +18°C° 0 mm 3 mps 747 mmHg 83%
    21:00 +18°C° 0 mm 3 mps 747 mmHg 87%
    22:00 +17°C° 0 mm 3 mps 747 mmHg 91%
    23:00 +16°C° 0.3 mm 3 mps 747 mmHg 92%

    Tomorrow, 22 May, Wednesday

    Time Temperature Precipitation Wind Pressure Humidity
    00:00 +16°C° 0.3 mm 3 mps 748 mmHg 93%
    01:00 +16°C° 0.3 mm 3 mps 748 mmHg 94%
    02:00 +14°C° 1 mm 4 mps 748 mmHg 94%
    03:00 +14°C° 1 mm 4 mps 748 mmHg 95%
    04:00 +14°C° 1 mm 4 mps 748 mmHg 95%
    05:00 +14°C° 0.7 mm 4 mps 748 mmHg 94%
    06:00 +14°C° 0.7 mm 4 mps 749 mmHg 93%
    07:00 +14°C° 0.7 mm 5 mps 749 mmHg 93%
    08:00 +15°C° 0.1 mm 5 mps 749 mmHg 91%
    09:00 +15°C° 0.1 mm 5 mps 750 mmHg 90%
    10:00 +16°C° 0.1 mm 6 mps 750 mmHg 89%
    11:00 +17°C° 0.2 mm 6 mps 750 mmHg 87%
    12:00 +17°C° 0.2 mm 6 mps 750 mmHg 85%
    13:00 +19°C° 0.2 mm 6 mps 750 mmHg 83%
    14:00 +19°C° 0.6 mm 6 mps 751 mmHg 84%
    15:00 +17°C° 0.6 mm 6 mps 751 mmHg 85%
    16:00 +17°C° 0.6 mm 7 mps 751 mmHg 86%
    17:00 +16°C° 0.1 mm 6 mps 751 mmHg 87%
    18:00 +15°C° 0.1 mm 6 mps 752 mmHg 88%
    19:00 +15°C° 0.1 mm 6 mps 752 mmHg 89%
    20:00 +14°C° 0 mm 6 mps 753 mmHg 89%
    21:00 +14°C° 0 mm 6 mps 753 mmHg 89%
    22:00 +14°C° 0 mm 5 mps 754 mmHg 89%
    23:00 +13°C° 0 mm 6 mps 754 mmHg 89%

    Day after tomorrow, 23 May, Thursday

    Time Temperature Precipitation Wind Pressure Humidity
    00:00 +13°C° 0 mm 6 mps 754 mmHg 89%
    01:00 +13°C° 0 mm 6 mps 755 mmHg 89%
    02:00 +11°C° 0.1 mm 6 mps 755 mmHg 88%
    03:00 +10°C° 0.1 mm 6 mps 755 mmHg 88%
    04:00 +10°C° 0.1 mm 6 mps 755 mmHg 87%
    05:00 +10°C° 0.1 mm 6 mps 756 mmHg 87%
    06:00 +9°C° 0.1 mm 6 mps 756 mmHg 86%
    07:00 +9°C° 0.1 mm 5 mps 757 mmHg 86%
    08:00 +10°C° 0 mm 5 mps 757 mmHg 81%
    09:00 +10°C° 0 mm 5 mps 757 mmHg 76%
    10:00 +12°C° 0 mm 4 mps 757 mmHg 70%
    11:00 +14°C° 0 mm 4 mps 757 mmHg 63%
    12:00 +16°C° 0 mm 5 mps 757 mmHg 55%
    13:00 +19°C° 0 mm 5 mps 757 mmHg 47%
    14:00 +19°C° 0 mm 5 mps 757 mmHg 47%
    15:00 +19°C° 0 mm 5 mps 757 mmHg 48%
    16:00 +19°C° 0 mm 5 mps 757 mmHg 48%
    17:00 +18°C° 0 mm 4 mps 757 mmHg 53%
    18:00 +17°C° 0 mm 3 mps 757 mmHg 59%
    19:00 +16°C° 0 mm 2 mps 757 mmHg 65%
    20:00 +14°C° 0 mm 2 mps 757 mmHg 70%
    21:00 +13°C° 0 mm 2 mps 757 mmHg 75%
    22:00 +11°C° 0 mm 1 mps 757 mmHg 79%
    23:00 +11°C° 0 mm 1 mps 757 mmHg 80%

    24 May, Friday

    Time Temperature Precipitation Wind Pressure Humidity
    00:00 +10°C° 0 mm 1 mps 757 mmHg 80%
    01:00 +10°C° 0 mm 1 mps 757 mmHg 80%
    02:00 +10°C° 0 mm 1 mps 757 mmHg 80%
    03:00 +10°C° 0 mm 1 mps 757 mmHg 79%
    04:00 +10°C° 0 mm 1 mps 756 mmHg 79%
    05:00 +12°C° 0 mm 2 mps 756 mmHg 75%
    06:00 +13°C° 0 mm 2 mps 756 mmHg 71%
    07:00 +15°C° 0 mm 2 mps 756 mmHg 67%
    08:00 +16°C° 0 mm 2 mps 756 mmHg 61%
    09:00 +18°C° 0 mm 2 mps 756 mmHg 54%
    10:00 +20°C° 0 mm 2 mps 755 mmHg 48%
    11:00 +20°C° 0 mm 2 mps 755 mmHg 48%
    12:00 +20°C° 0 mm 2 mps 754 mmHg 49%
    13:00 +20°C° 0 mm 2 mps 754 mmHg 49%
    14:00 +21°C° 0 mm 2 mps 753 mmHg 48%
    15:00 +21°C° 0 mm 3 mps 753 mmHg 47%
    16:00 +22°C° 0 mm 3 mps 752 mmHg 45%
    17:00 +21°C° 0 mm 2 mps 752 mmHg 51%
    18:00 +20°C° 0 mm 2 mps 752 mmHg 56%
    19:00 +20°C° 0 mm 1 mps 752 mmHg 62%
    20:00 +17°C° 0 mm 2 mps 752 mmHg 64%
    21:00 +16°C° 0 mm 2 mps 752 mmHg 66%
    22:00 +15°C° 0 mm 2 mps 752 mmHg 69%
    23:00 +14°C° 0 mm 2 mps 751 mmHg 72%

    25 May, Saturday

    Time Temperature Precipitation Wind Pressure Humidity
    00:00 +14°C° 0 mm 2 mps 751 mmHg 76%
    01:00 +13°C° 0 mm 2 mps 751 mmHg 80%
    02:00 +13°C° 0 mm 2 mps 751 mmHg 82%
    03:00 +13°C° 0 mm 2 mps 751 mmHg 85%
    04:00 +13°C° 0 mm 2 mps 751 mmHg 88%
    05:00 +13°C° 0 mm 3 mps 751 mmHg 84%
    06:00 +14°C° 0 mm 3 mps 751 mmHg 79%
    07:00 +17°C° 0 mm 4 mps 751 mmHg 75%
    08:00 +18°C° 0 mm 4 mps 752 mmHg 69%
    09:00 +19°C° 0 mm 4 mps 752 mmHg 62%
    10:00 +20°C° 0 mm 4 mps 752 mmHg 56%
    11:00 +21°C° 0.1 mm 5 mps 752 mmHg 55%
    12:00 +21°C° 0.1 mm 5 mps 752 mmHg 54%
    13:00 +21°C° 0.1 mm 5 mps 752 mmHg 53%
    14:00 +21°C° 0 mm 5 mps 752 mmHg 53%
    15:00 +21°C° 0 mm 5 mps 752 mmHg 52%
    16:00 +21°C° 0 mm 5 mps 751 mmHg 52%
    17:00 +20°C° 0 mm 5 mps 752 mmHg 57%
    18:00 +18°C° 0 mm 4 mps 752 mmHg 61%
    19:00 +17°C° 0 mm 4 mps 752 mmHg 66%
    20:00 +14°C° 0 mm 3 mps 752 mmHg 71%
    21:00 +13°C° 0 mm 2 mps 753 mmHg 77%
    22:00 +12°C° 0 mm 1 mps 753 mmHg 82%
    23:00 +11°C° 0 mm 1 mps 753 mmHg 82%

    26 May, Sunday

    Time Temperature Precipitation Wind Pressure Humidity
    00:00 +11°C° 0 mm 1 mps 753 mmHg 82%
    01:00 +11°C° 0 mm 1 mps 753 mmHg 82%
    02:00 +10°C° 0 mm 2 mps 752 mmHg 83%
    03:00 +10°C° 0 mm 2 mps 752 mmHg 84%
    04:00 +10°C° 0 mm 3 mps 752 mmHg 84%
    05:00 +11°C° 0 mm 4 mps 752 mmHg 82%
    06:00 +13°C° 0 mm 5 mps 752 mmHg 80%
    07:00 +14°C° 0 mm 5 mps 752 mmHg 77%
    08:00 +14°C° 0.1 mm 6 mps 752 mmHg 76%
    09:00 +13°C° 0.1 mm 6 mps 752 mmHg 75%
    10:00 +13°C° 0.1 mm 6 mps 752 mmHg 74%
    11:00 +13°C° 0 mm 6 mps 752 mmHg 72%
    12:00 +11°C° 0 mm 6 mps 753 mmHg 70%
    13:00 +11°C° 0 mm 6 mps 753 mmHg 68%
    14:00 +13°C° 0 mm 6 mps 753 mmHg 66%
    15:00 +14°C° 0 mm 6 mps 753 mmHg 63%
    16:00 +14°C° 0 mm 6 mps 753 mmHg 60%
    17:00 +14°C° 0 mm 5 mps 753 mmHg 63%
    18:00 +14°C° 0 mm 4 mps 753 mmHg 65%
    19:00 +13°C° 0 mm 3 mps 753 mmHg 68%
    20:00 +12°C° 0 mm 3 mps 753 mmHg 72%
    21:00 +12°C° 0 mm 2 mps 753 mmHg 77%
    22:00 +9°C° 0 mm 2 mps 753 mmHg 81%
    23:00 +10°C° 0 mm 2 mps 753 mmHg 81%
    Show more